#timestamp,LO_Frequency,Hit,StdDev 
1531839615.4,286047001.2,P
1531839635.2,286047000.8,N
1531839655.0,286046998.1,P
1531839655.9,286046998.1,N
1531839675.8,286047000.9,N
1531839695.6,286047001.1,N
1531839715.4,286046999.7,N
1531839735.3,286047001.0,N
1531839755.1,286047000.9,N
1531839775.9,286046999.8,N
1531839795.7,286047000.1,N
1531839815.5,286047002.2,N
1531839835.4,286047000.2,N
1531839855.2,286047000.1,N
1531839875.0,286047000.2,N
1531839875.9,286047000.2,N
1531839895.8,286047002.6,N
1531839915.6,286047000.0,N
1531839935.5,286047000.9,N
1531839955.3,286047000.4,N
1531839975.1,286047000.7,N
1531839995.9,286047000.2,N
1531840015.7,286047001.0,N
1531840035.5,286046999.7,N
1531840055.4,286047000.1,N
1531840075.2,286047000.3,N
1531840095.0,286047000.3,N
1531840096.0,286047000.3,N
1531840115.8,286047000.0,N
1531840135.6,286047001.0,N
1531840155.5,286047000.8,N
1531840175.3,286047001.0,N
1531840195.1,286047001.1,N
1531840215.9,286047000.8,N
1531840235.7,286047000.4,N
1531840255.6,286047000.0,N
1531840275.4,286047000.3,N
1531840295.2,286046999.7,N
1531840315.1,286047000.0,N
1531840316.0,286047000.0,N
1531840335.8,286047001.1,N
1531840355.6,286047000.8,N
1531840375.5,286047001.2,N
1531840395.3,286047001.2,N
1531840415.2,286047000.8,N
1531840435.9,286047000.7,N
1531840455.7,286047000.6,N
1531840475.6,286047000.6,N
1531840495.4,286047001.0,N
1531840515.3,286047000.6,N
1531840535.1,286047000.5,N
1531840536.0,286047000.5,N
1531840555.8,286046998.3,Y
1531840575.7,286046999.1,P
1531840595.5,286046996.5,P
1531840615.3,286046996.6,N
1531840635.2,286046996.9,N
1531840655.0,286046997.7,N
1531840655.9,286046997.7,N
1531840675.8,286046997.4,N
1531840695.6,286046997.8,N
1531840715.4,286046997.9,N
1531840735.3,286046997.6,N
1531840755.1,286046995.4,Y
1531840775.9,286047000.8,P
1531840795.7,286046998.4,N
1531840815.5,286046998.3,N
1531840835.4,286046998.4,N
1531840855.2,286046998.8,N
1531840875.0,286047001.2,N
1531840875.9,286047001.2,N
1531840895.8,286046998.3,N
1531840915.6,286047000.7,N
1531840935.5,286047000.9,N
1531840955.3,286047000.6,N
1531840975.1,286046998.2,N
1531840995.9,286047001.1,N
1531841015.7,286046998.3,N
1531841035.5,286046999.0,N
1531841055.4,286046996.5,N
1531841075.2,286046996.7,N
1531841095.1,286046997.3,N
1531841096.0,286046997.3,N
1531841115.8,286046997.7,N
1531841135.6,286046997.0,N
1531841155.5,286046999.5,N
1531841175.3,286046999.5,N
1531841195.2,286046999.1,N
1531841215.9,286046999.0,N
1531841235.7,286046999.0,N
1531841255.6,286046999.1,N
1531841275.4,286046998.4,N
1531841295.2,286046999.1,N
1531841315.1,286046998.7,N
1531841316.0,286046998.7,N
1531841335.8,286047001.1,N
1531841355.7,286046998.8,N
1531841375.5,286046999.1,N
1531841395.3,286046997.1,N
1531841415.2,286046997.6,N
1531841435.0,286046997.5,N
1531841435.9,286046997.5,N
1531841455.7,286046999.6,N
1531841475.6,286046997.8,N
1531841495.4,286046997.5,N
1531841515.3,286046995.3,Y
1531841535.1,286046996.6,P
1531841555.8,286046996.7,P
1531841575.7,286046999.6,N
1531841595.5,286046996.8,N
1531841615.4,286046996.8,N
1531841635.2,286046996.6,Y
1531841655.0,286047000.5,P
1531841655.9,286047000.5,N
1531841675.8,286046999.8,N
1531841695.6,286047000.4,N
1531841715.4,286046999.8,N
1531841735.3,286047000.2,N
1531841755.1,286047002.3,N
1531841775.9,286047002.7,N
1531841795.7,286047000.1,N
1531841815.5,286047000.4,N
1531841835.4,286047000.2,N
1531841855.2,286047000.5,N
1531841875.1,286047000.5,N
1531841876.0,286047000.5,N
1531841895.8,286047000.5,N
1531841915.6,286047000.0,N
1531841935.5,286047000.8,N
1531841955.3,286047000.7,N
1531841975.1,286047000.4,N
1531841995.9,286046999.7,N
1531842015.7,286047000.0,N
1531842035.6,286047000.6,N
1531842055.4,286046998.4,N
1531842075.2,286047001.0,N
1531842095.1,286047000.9,N
1531842096.0,286047000.9,N
1531842115.8,286047000.5,N
1531842135.7,286047001.0,N
1531842155.5,286046999.4,N
1531842175.3,286046998.8,N
1531842195.2,286046996.5,Y
1531842215.0,286046999.5,P
1531842215.9,286046999.5,N
1531842235.8,286046999.6,N
1531842255.6,286047000.9,N
1531842275.4,286046998.5,N
1531842295.3,286046998.1,N
1531842315.1,286046998.7,N
1531842335.8,286046998.8,N
1531842355.7,286046998.8,N
1531842375.5,286046999.6,N
1531842395.4,286046999.2,N
1531842415.2,286046996.8,Y
1531842435.0,286046999.4,P
1531842435.9,286046999.4,P
1531842455.8,286046999.0,P
1531842475.2,286046998.6,Y
1531842495.1,286046998.4,P
1531842496.0,286046998.4,P
1531842515.8,286046998.5,P
1531842535.6,286047001.2,Y
1531842555.5,286047000.1,P
1531842575.3,286046999.9,N
1531842595.2,286046999.7,N
1531842615.9,286046999.8,N
1531842635.7,286047000.3,N
1531842655.6,286047000.3,N
1531842675.4,286047000.9,N
1531842695.2,286047000.5,N
1531842715.1,286047000.2,N
1531842716.0,286047000.2,N
1531842735.8,286046999.9,N
1531842755.7,286047002.0,Y
1531842775.5,286047004.4,P
1531842795.3,286047001.8,N
1531842815.2,286047004.4,N
1531842835.0,286047001.5,N
1531842835.9,286047001.5,N
1531842855.8,286047001.5,N
1531842875.6,286047002.6,N
1531842895.4,286047001.9,N
1531842915.3,286047002.3,N
1531842935.1,286047002.6,N
1531842955.9,286047003.9,Y
1531842975.7,286047000.8,P
1531842995.5,286047000.4,N
1531843015.4,286046999.7,N
1531843035.2,286047002.7,N
1531843055.0,286046999.9,N
1531843055.9,286046999.9,N
1531843075.8,286047000.2,N
1531843095.6,286047002.8,N
1531843115.5,286047002.4,N
1531843135.3,286046999.9,N
1531843155.1,286047000.6,N
1531843175.9,286047000.6,N
1531843195.7,286047000.3,N
